Regional Weather Roundup
Issued by NWS Sterling, VA

Home | Current Version | Previous Version | Text Only | Print | Product List | Glossary On
Versions: 1 2 3 4 5 6 7 8 9 10 11 12 13 14 15 16 17 18 19 20 21 22 23 24 25 26 27 28 29 30 31 32 33 34 35 36 37 38 39 40 41 42 43 44 45 46 47 48 49 50
000
ASUS41 KLWX 280410
RWRLWX

REGIONAL WEATHER ROUNDUP
NATIONAL WEATHER SERVICE BALTIMORE MD/WASHINGTON DC
1100 PM EST TUE JAN 27 2015

Note: "FAIR" indicates few or no clouds below 12,000 feet
with no significant weather and/or obstructions to visibility.
 TC=TEMPERATURE CELSIUS

 * =Non NWS site. Station does not report precipitation (e.g. rain,
    snow, etc.), thunder, or fog.

DCZ001-MDZ009-015-VAZ040>042-051-053>054-280500-
WASHINGTON METRO

CITY           SKY/WX    TMP DP  RH WIND       PRES   REMARKS
WASHINGTON NAT PTCLDY    31  15  52 NW17G24   29.97R WCI  19
DULLES         PTCLDY    27  14  58 NW14      29.97R WCI  16
ANDREWS AFB    CLEAR     28  16  61 NW16G23   29.93R WCI  15
FT BELVOIR     CLEAR     29  16  58 NW12      29.98R WCI  19
QUANTICO       CLEAR     30  15  53 N13G24    29.99R WCI  20
COLLEGE PARK*  CLEAR     30  18  59 NW9       29.95R WCI  22
LEESBURG*      PTCLDY    28  19  69 NW17G28   29.98R WCI  16
MANASSAS*      PTCLDY    27  19  74 N9G16     29.98  WCI  17
GAITHERSBURG*  PTCLDY    25  12  58 NW10G22   29.98R WCI  15

$$

MDZ006>007-011-014-280500-
BALTIMORE METRO

CITY           SKY/WX    TMP DP  RH WIND       PRES   REMARKS
BWI AIRPORT    PTCLDY    27  13  55 NW15G22   29.93R WCI  15
MD SCIENCE CTR   N/A     28  13  53 MISG      29.93R
MARTIN STATE   CLEAR     30  14  51 NW13G23   29.94R WCI  20
ANNAPOLIS      CLEAR     30  17  58 NW13G24   29.93R WCI  20
FORT MEADE*    CLEAR     27  16  63 NW10      29.97R WCI  17

$$

MDZ012-015-019>023-280500-
MARYLAND EASTERN SHORE

CITY           SKY/WX    TMP DP  RH WIND       PRES   REMARKS
OCEAN CITY     CLEAR     30  19  63 NW13G22   29.86R WCI  20
SALISBURY      CLEAR     32  18  56 NW14      29.88R WCI  22
BAY BRIDGE AP*   N/A     30  16  55 NW14G22   29.94R WCI  20
CAMBRIDGE*     CLEAR     32  18  55 NW17      29.91R WCI  21
EASTON*        CLEAR     31  18  58 N15G23    29.94R WCI  20

$$

MDZ017>025-280500-
SOUTHERN MARYLAND

CITY           SKY/WX    TMP DP  RH WIND       PRES   REMARKS
PATUXENT RIVER PTCLDY    30  18  60 NW18G26   29.92R WCI  18
ST INIGOES     PTCLDY    30  16  56 NW9G20    29.92R WCI  22
LEONARDTOWN*   PTCLDY    30  18  59 NW7       29.94R

$$

MDZ003>005-280500-
NORTH CENTRAL MARYLAND

CITY           SKY/WX    TMP DP  RH WIND       PRES   REMARKS
FREDERICK*     PTCLDY    28  12  50 NW10      30.01R WCI  19
HAGERSTOWN APT PTCLDY    24  11  57 NW12      29.99R WCI  13
WESTMINSTER*   PTCLDY    23  12  63 NW8       29.92R WCI  14

$$

MDZ501>502-280500-
WESTERN MARYLAND

CITY           SKY/WX    TMP DP  RH WIND       PRES   REMARKS
OAKLAND*       CLOUDY    12 N/A N/A NW3       29.93R FOG
CUMBERLAND*    CLEAR     25  14  63 NW6       30.09R

$$

VAZ025>031-280500-
SHENANDOAH VALLEY

CITY           SKY/WX    TMP DP  RH WIND       PRES   REMARKS
WINCHESTER*    PTCLDY    27  14  59 NW16      30.00R WCI  14
FRONT ROYAL*   CLOUDY    27  18  69 NW5       29.98R
LURAY*         MOCLDY    28  19  69 CALM      29.99R
NEW MARKET*    MOCLDY    22  17  81 CALM      29.99R
STAUNTON*      CLEAR     24  14  64 CALM      30.00R
WAYNESBORO*    FAIR      21  11  67 CALM      29.97R

$$

WVZ021-048>050-054>055-280500-
EASTERN WEST VIRGINIA PANHANDLE

CITY           SKY/WX    TMP DP  RH WIND       PRES   REMARKS
MARTINSBURG    PTCLDY    26  13  57 NW9G26    30.00R WCI  17
PETERSBURG*    PTCLDY    22  14  70 CALM      30.04R

$$

VAZ036>039-050-280500-
CENTRAL FOOTHILLS

CITY           SKY/WX    TMP DP  RH WIND       PRES   REMARKS
CHARLOTTESVILL CLOUDY    30  15  53 VRB7      29.94R
CULPEPER*        N/A    N/A N/A N/A N12G20      N/A
ORANGE*        MOCLDY    32  21  64 CALM      29.96R
GORDONSVILLE*  CLOUDY    30  17  56 CALM      29.94R
WARRENTON*     MOCLDY    30  21  70 NW9G17    29.96R WCI  21

$$

VAZ055>057-280500-
NORTH AND CENTRAL PIEDMONT

CITY           SKY/WX    TMP DP  RH WIND       PRES   REMARKS
FREDERICKSBRG* PTCLDY    31  19  58 NW8G17    29.96R WCI  24
STAFFORD*      CLEAR     28  15  57 NW17      30.01R WCI  16

$$

NCZ024-NYZ072-PAZ021-071-VAZ022-071-280500-
OTHER REGIONAL OBSERVATIONS

CITY           SKY/WX    TMP DP  RH WIND       PRES   REMARKS
NEW YORK CITY  CLOUDY    21   5  50 NW10G20   29.84R WCI  10
PHILADELPHIA   PTCLDY    23   6  48 NW20G28   29.90R WCI   8
PITTSBURGH     FLURRIES  18  12  77 NW12      30.10R WCI   5
ROANOKE        PTCLDY    23  10  57 NW10G20   30.04R WCI  12
RICHMOND       CLOUDY    32  22  66 N9        29.95R WCI  24
RALEIGH        PTCLDY    32  10  40 N7        29.98R

$$

ANZ530>537-280500-
MARINE OBSERVATIONS

STATION/POSITION TIME  TEMP    WIND        PRES
                       AIR SEA DIR/SP/G
                 (UTC) (F)     (DEG/KT/KT) (MB)
THOMAS PT LIGHT  0400   30 37  320/ 18/ 21 1014.5R
BALT KEY BRIDGE  0400   30     300/ 18/ 22 1013.2R
COVE POINT       0400   30     340/ 19/ 24 1012.8R
LEWISETTA        0400   32 37  330/ 10/ 13 1013.3R
SOLOMONS ISLAND  0400      38                N/A
PINEY POINT      0400          350/ 20/ 22   N/A

$$



USA.gov is the U.S. government's official web portal to all federal, state and local government web resources and services.